Location: Martinez
(33.5170°N, 82.0760°W)
Time: 03:04:04
(UTC-04:00)

HST - Visible Passes

Search period start: 03 September 2014 00:00
Search period end: 13 September 2014 00:00
Orbit: 547 x 552 km, 28.5° (Epoch: 01 September)

Date Brightness Start Highest point End Pass type
(mag) Time Alt. Az. Time Alt. Az. Time Alt. Az.
03 Sep 3.3 21:40:13 10° SSW 21:40:24 11° SSW 21:40:24 11° SSW visible
04 Sep 2.8 21:32:48 10° SW 21:34:17 17° SSW 21:34:17 17° SSW visible
05 Sep 2.3 21:25:31 10° SW 21:28:03 24° S 21:28:03 24° S visible
06 Sep 1.8 21:18:19 10° SW 21:21:42 30° S 21:21:42 30° S visible
07 Sep 1.6 21:11:11 10° WSW 21:15:00 35° S 21:15:16 34° SSE visible
08 Sep 1.5 21:04:07 10° WSW 21:08:00 38° S 21:08:46 35° SSE visible
09 Sep 1.4 20:57:04 10° WSW 21:01:00 40° S 21:02:11 32° SE visible
10 Sep 1.4 20:50:03 10° WSW 20:54:00 41° S 20:55:35 28° SE visible
11 Sep 1.5 20:43:03 10° WSW 20:47:00 41° S 20:48:57 25° SE visible
12 Sep 1.6 20:36:05 10° WSW 20:40:00 39° S 20:42:18 21° SE visible
12 Sep 3.8 22:17:47 10° WSW 22:17:52 10° WSW 22:17:52 10° WSW visible
